Simultaneous Nadir Overpasses (SNOs) Predictions

Prediction of SNOs between AQUA and METOP-B Satellite Orbit:

Table of predicted SNOs for the next 14.0 days since TLE Epoch: 2/11/2023
Index Date (AQUA) Time (AQUA) Lat,Lon (AQUA) SZA (AQUA ) Date (METOP-B) Time (METOP-B) Lat,Lon (METOP-B) SZA (METOP-B ) Distance(km) Time Diff (sec)
1 02/12/2023 03:10:22 -73.89, -51.46 92.27 02/12/2023 03:09:12 -73.83, -53.06 92.25 49.92 70
2 02/12/2023 03:59:56 74.28, 115.29 88.14 02/12/2023 03:59:43 74.26, 115.32 88.13 2.01 13
3 02/12/2023 04:49:21 -74.31, -77.15 91.83 02/12/2023 04:50:24 -74.31, -77.23 91.85 2.56 63
4 02/14/2023 21:53:43 74.21,-152.98 87.14 02/14/2023 21:52:46 74.22,-153.04 87.16 2.09 57
5 02/14/2023 22:43:09 -74.30, 14.46 92.78 02/14/2023 22:43:26 -74.32, 14.53 92.76 2.94 17
6 02/14/2023 23:32:48 74.94,-179.50 87.92 02/14/2023 23:33:53 74.93,-176.49 87.79 87.13 65
7 02/17/2023 16:36:54 -74.25, 106.16 93.79 02/17/2023 16:36:29 -74.26, 106.13 93.77 1.81 25
8 02/17/2023 17:26:22 74.33, -86.40 86.30 02/17/2023 17:27:07 74.33, -86.34 86.29 1.67 45
9 02/20/2023 10:30:36 -74.21,-162.15 94.80 02/20/2023 10:29:30 -74.23,-162.19 94.76 3.19 66
10 02/20/2023 11:20:04 74.30, 5.28 85.28 02/20/2023 11:20:08 74.31, 5.33 85.29 1.95 4
11 02/20/2023 12:09:34 -74.59, 172.22 94.42 02/20/2023 12:10:44 -74.60, 173.43 94.46 35.85 70
12 02/23/2023 05:13:45 74.28, 96.92 84.26 02/23/2023 05:13:10 74.26, 96.96 84.25 2.10 35
13 02/23/2023 06:03:10 -74.31, -95.50 95.72 02/23/2023 06:03:51 -74.32, -95.57 95.71 2.16 41



Historial Predications of SNOs between AQUA and METOP-B
